Location: *
(49.5667°N, 1.3667°W)
Time: 23:47:02
(UTC+00:00)

SPOT 5 - Pass Details

Date: 20 September 2019
Orbit: 624 x 814 km, 98.3° (Epoch: 20 October)

Event Time Altitude Azimuth Distance (km) Brightness Sun altitude
Exits shadow 21:07:34 39° 29° (NNE) 1,104 3.8 -27.6°
Drops below altitude 10° 21:11:11 10° 356° (N) 2,293 6.0 -28.0°
Sets 21:13:37 0° 350° (N) 3,252 7.0 -28.3°
